Location: Most
(50.5133°N, 13.6207°E)
Time: 09:41:30
(UTC+02:00)

ISS - Pass Details

Date: 12 July 2018
Orbit: 402 x 408 km, 51.6° (Epoch: 17 July)

Event Time Altitude Azimuth Distance (km) Brightness Sun altitude
Exits shadow 02:48:34 30° 222° (SW) 761 -3.0 -14.4°
Maximum altitude 02:49:56 56° 157° (SSE) 489 -3.7 -14.3°
Drops below altitude 10° 02:53:11 10° 78° (ENE) 1,473 -0.5 -14.1°
Sets 02:55:17 0° 74° (ENE) 2,336 0.7 -13.9°
